QTR34V LTFM-OTHH

Flight info

Callsign QTR34V
Flight time N/A
Altitude 37000
Route VICEN1G/17R VICEN UT57 VEVUD UT341 BAG UG8 GOBIT UL614 BULUT/N0473F390 UL614 OTKEP UM688 RATVO M688 KEDIM DCT SISIN M688 SIDAD P975 LONOS L703 HAYYA
Aircraft B77W/H-SDE1E2E3FGHIJ2J3J4J5M1RWXY/LB1D1

Departure

Time 2026-02-20 10:19
Airport İstanbul Airport (LTFM)

Arrival

Time N/A
Airport Hamad International Airport (OTHH)
Time Latitude Longitude Altitude Speed Heading
2026-02-20 09:50 41.26785 28.73442 338 ft 0 kts 179°
2026-02-20 10:02 41.26796 28.73442 333 ft 3 kts 179°
2026-02-20 10:03 41.26817 28.73441 333 ft 3 kts 179°
2026-02-20 10:03 41.26835 28.73441 335 ft 3 kts 188°
2026-02-20 10:03 41.26853 28.73447 333 ft 3 kts 211°
2026-02-20 10:03 41.26865 28.73459 333 ft 3 kts 242°
2026-02-20 10:04 41.26871 28.73482 333 ft 3 kts 265°
2026-02-20 10:04 41.26872 28.73506 334 ft 2 kts 269°
2026-02-20 10:04 41.26872 28.73522 333 ft 3 kts 269°
2026-02-20 10:04 41.26873 28.73548 334 ft 2 kts 269°
2026-02-20 10:05 41.26873 28.73554 334 ft 0 kts 269°
2026-02-20 10:08 41.26873 28.73550 333 ft 1 kts 269°
2026-02-20 10:08 41.26872 28.73521 336 ft 4 kts 269°
2026-02-20 10:09 41.26872 28.73477 334 ft 6 kts 269°
2026-02-20 10:09 41.26871 28.73415 335 ft 7 kts 268°
2026-02-20 10:09 41.26869 28.73346 335 ft 8 kts 268°
2026-02-20 10:09 41.26868 28.73276 335 ft 8 kts 268°
2026-02-20 10:10 41.26866 28.73189 336 ft 11 kts 269°
2026-02-20 10:10 41.26864 28.73082 337 ft 12 kts 269°
2026-02-20 10:10 41.26880 28.73004 333 ft 9 kts 315°
2026-02-20 10:10 41.26940 28.72985 334 ft 10 kts 359°
2026-02-20 10:11 41.27056 28.72984 337 ft 20 kts 359°
2026-02-20 10:11 41.27200 28.72982 334 ft 21 kts 359°
2026-02-20 10:11 41.27345 28.72978 338 ft 21 kts 359°
2026-02-20 10:11 41.27489 28.72973 335 ft 21 kts 359°
2026-02-20 10:12 41.27635 28.72971 335 ft 22 kts 359°
2026-02-20 10:12 41.27804 28.72967 337 ft 27 kts 360°
2026-02-20 10:12 41.27969 28.72964 336 ft 26 kts 358°
2026-02-20 10:12 41.28172 28.72957 336 ft 32 kts 359°
2026-02-20 10:13 41.28399 28.72953 334 ft 25 kts 360°
2026-02-20 10:13 41.28591 28.72949 334 ft 30 kts 359°
2026-02-20 10:13 41.28808 28.72943 334 ft 32 kts 359°
2026-02-20 10:13 41.29027 28.72938 335 ft 27 kts 359°
2026-02-20 10:14 41.29192 28.72934 336 ft 21 kts 359°
2026-02-20 10:14 41.29338 28.72931 334 ft 21 kts 359°
2026-02-20 10:14 41.29484 28.72927 338 ft 21 kts 359°
2026-02-20 10:14 41.29625 28.72923 334 ft 16 kts 359°
2026-02-20 10:15 41.29703 28.72922 334 ft 6 kts 359°
2026-02-20 10:15 41.29725 28.72922 337 ft 2 kts 359°
2026-02-20 10:15 41.29732 28.72922 338 ft 2 kts 359°
2026-02-20 10:15 41.29748 28.72921 334 ft 2 kts 359°
2026-02-20 10:16 41.29764 28.72921 337 ft 3 kts 359°
2026-02-20 10:16 41.29814 28.72920 337 ft 7 kts 359°
2026-02-20 10:16 41.29863 28.72910 333 ft 7 kts 331°
2026-02-20 10:16 41.29880 28.72864 334 ft 5 kts 276°
2026-02-20 10:17 41.29880 28.72832 335 ft 5 kts 268°
2026-02-20 10:17 41.29879 28.72774 335 ft 7 kts 270°
2026-02-20 10:17 41.29879 28.72699 335 ft 9 kts 270°
2026-02-20 10:17 41.29879 28.72609 335 ft 11 kts 269°
2026-02-20 10:18 41.29876 28.72505 336 ft 10 kts 268°
2026-02-20 10:18 41.29851 28.72452 337 ft 7 kts 206°
2026-02-20 10:18 41.29809 28.72454 334 ft 7 kts 173°
2026-02-20 10:19 41.29611 28.72459 337 ft 50 kts 179°
2026-02-20 10:19 41.28981 28.72471 336 ft 126 kts 179°
2026-02-20 10:19 41.27929 28.72499 470 ft 168 kts 181°
2026-02-20 10:19 41.26746 28.72551 1227 ft 163 kts 182°
2026-02-20 10:20 41.25663 28.72596 2367 ft 152 kts 184°
2026-02-20 10:20 41.24582 28.72639 3246 ft 160 kts 184°
2026-02-20 10:20 41.23408 28.72686 3913 ft 177 kts 184°
2026-02-20 10:20 41.22135 28.72740 4619 ft 190 kts 184°
2026-02-20 10:21 41.20735 28.72795 5009 ft 218 kts 183°
2026-02-20 10:21 41.19149 28.72828 4987 ft 224 kts 189°
2026-02-20 10:21 41.17715 28.72213 5077 ft 220 kts 209°
2026-02-20 10:21 41.16485 28.70936 5603 ft 231 kts 225°
2026-02-20 10:22 41.15298 28.69467 6656 ft 234 kts 223°
2026-02-20 10:22 41.14080 28.67986 7637 ft 243 kts 224°
2026-02-20 10:22 41.12763 28.66506 8458 ft 255 kts 213°
2026-02-20 10:22 41.11035 28.65826 9403 ft 268 kts 187°
2026-02-20 10:23 41.09131 28.66003 10336 ft 282 kts 178°
2026-02-20 10:23 41.07104 28.66363 10827 ft 309 kts 177°
2026-02-20 10:23 41.04857 28.66778 11098 ft 342 kts 176°
2026-02-20 10:23 41.02603 28.67203 11823 ft 355 kts 176°
2026-02-20 10:24 41.00123 28.67665 12858 ft 363 kts 176°
2026-02-20 10:24 40.97599 28.68127 13958 ft 368 kts 176°
2026-02-20 10:24 40.95103 28.68913 14721 ft 380 kts 160°
2026-02-20 10:24 40.92906 28.71007 15570 ft 400 kts 137°
2026-02-20 10:25 40.91264 28.74020 16531 ft 411 kts 122°
2026-02-20 10:25 40.90194 28.77569 17442 ft 420 kts 108°
2026-02-20 10:25 40.89479 28.81371 18224 ft 431 kts 105°
2026-02-20 10:25 40.88850 28.85281 18971 ft 438 kts 103°
2026-02-20 10:26 40.88246 28.89260 19545 ft 443 kts 103°
2026-02-20 10:26 40.87640 28.93257 20068 ft 445 kts 103°
2026-02-20 10:26 40.87015 28.97272 20615 ft 448 kts 104°
2026-02-20 10:26 40.86365 29.01331 21248 ft 454 kts 104°
2026-02-20 10:27 40.85698 29.05388 22049 ft 459 kts 104°
2026-02-20 10:27 40.85007 29.09529 22852 ft 464 kts 104°
2026-02-20 10:27 40.84301 29.13714 23625 ft 470 kts 104°
2026-02-20 10:27 40.83580 29.17958 24247 ft 476 kts 104°
2026-02-20 10:28 40.82848 29.22252 24872 ft 481 kts 104°
2026-02-20 10:28 40.81358 29.30960 26183 ft 490 kts 104°
2026-02-20 10:28 40.80602 29.35368 26769 ft 495 kts 104°
2026-02-20 10:29 40.79837 29.39817 27373 ft 500 kts 104°
2026-02-20 10:29 40.79061 29.44322 27974 ft 505 kts 104°
2026-02-20 10:29 40.78279 29.48856 28578 ft 509 kts 104°
2026-02-20 10:29 40.77485 29.53444 29146 ft 514 kts 104°
2026-02-20 10:30 40.76684 29.58062 29703 ft 519 kts 104°
2026-02-20 10:30 40.75880 29.62681 30230 ft 523 kts 104°
2026-02-20 10:30 40.75062 29.67377 30673 ft 527 kts 104°
2026-02-20 10:30 40.74236 29.72101 31090 ft 531 kts 104°
2026-02-20 10:31 40.73404 29.76851 31606 ft 531 kts 104°
2026-02-20 10:31 40.72571 29.81594 32202 ft 530 kts 104°
2026-02-20 10:31 40.71735 29.86340 32830 ft 529 kts 103°
2026-02-20 10:31 40.70901 29.91062 33408 ft 528 kts 103°
2026-02-20 10:32 40.70077 29.95717 33984 ft 527 kts 103°
2026-02-20 10:32 40.69242 30.00414 34465 ft 526 kts 103°
2026-02-20 10:32 40.68404 30.05122 34920 ft 526 kts 103°
2026-02-20 10:32 40.67585 30.09821 35333 ft 527 kts 102°
2026-02-20 10:33 40.66896 30.14569 35739 ft 527 kts 100°
2026-02-20 10:33 40.66249 30.19326 36146 ft 527 kts 101°
2026-02-20 10:33 40.65568 30.24063 36568 ft 527 kts 102°
2026-02-20 10:33 40.64822 30.28807 36927 ft 528 kts 103°
2026-02-20 10:34 40.64023 30.33523 37205 ft 526 kts 104°
2026-02-20 10:34 40.62355 30.42750 37180 ft 518 kts 104°
2026-02-20 10:35 40.60649 30.51920 37147 ft 513 kts 104°
2026-02-20 10:35 40.58967 30.60989 37185 ft 508 kts 104°
2026-02-20 10:36 40.57294 30.70038 37175 ft 509 kts 104°
2026-02-20 10:36 40.55611 30.79119 37186 ft 512 kts 104°
2026-02-20 10:37 40.53912 30.88247 37171 ft 515 kts 104°
2026-02-20 10:37 40.52206 30.97371 37220 ft 518 kts 104°
2026-02-20 10:38 40.50470 31.06604 37203 ft 520 kts 104°
2026-02-20 10:38 40.48724 31.15844 37211 ft 520 kts 104°
2026-02-20 10:39 40.46983 31.25019 37203 ft 521 kts 104°
2026-02-20 10:39 40.45222 31.34250 37220 ft 520 kts 104°
2026-02-20 10:40 40.43458 31.43457 37213 ft 519 kts 104°
2026-02-20 10:40 40.41703 31.52583 37226 ft 517 kts 104°
2026-02-20 10:41 40.39929 31.61757 37228 ft 517 kts 104°
2026-02-20 10:41 40.38164 31.70839 37234 ft 517 kts 104°
2026-02-20 10:42 40.36378 31.79990 37229 ft 517 kts 104°
2026-02-20 10:42 40.34581 31.89153 37239 ft 518 kts 104°
2026-02-20 10:43 40.32775 31.98325 37221 ft 520 kts 104°
2026-02-20 10:43 40.30057 32.12047 37244 ft 521 kts 104°
2026-02-20 10:44 40.28222 32.21263 37240 ft 521 kts 104°
2026-02-20 10:44 40.26392 32.30407 37244 ft 521 kts 104°
2026-02-20 10:45 40.24546 32.39590 37243 ft 521 kts 104°
2026-02-20 10:45 40.22690 32.48783 37241 ft 521 kts 104°
2026-02-20 10:46 40.20842 32.57899 37233 ft 521 kts 104°
2026-02-20 10:46 40.18969 32.67093 37238 ft 521 kts 104°
2026-02-20 10:47 40.17105 32.76206 37244 ft 521 kts 104°
2026-02-20 10:47 40.15219 32.85382 37241 ft 522 kts 104°
2026-02-20 10:48 40.13328 32.94547 37240 ft 523 kts 105°
2026-02-20 10:48 40.11425 33.03731 37245 ft 524 kts 105°
2026-02-20 10:49 40.09519 33.12882 37243 ft 525 kts 105°
2026-02-20 10:49 40.07594 33.22089 37246 ft 526 kts 105°
2026-02-20 10:50 40.05654 33.31324 37242 ft 526 kts 105°
2026-02-20 10:50 40.03723 33.40482 37245 ft 526 kts 105°
2026-02-20 10:51 40.01775 33.49683 37259 ft 526 kts 105°
2026-02-20 10:51 39.99814 33.58891 37260 ft 526 kts 105°
2026-02-20 10:52 39.97847 33.68106 37256 ft 526 kts 105°
2026-02-20 10:52 39.95884 33.77251 37263 ft 526 kts 105°
2026-02-20 10:53 39.93905 33.86437 37250 ft 526 kts 105°
2026-02-20 10:53 39.91921 33.95605 37260 ft 525 kts 105°
2026-02-20 10:54 39.89931 34.04763 37258 ft 525 kts 105°
2026-02-20 10:54 39.87934 34.13915 37264 ft 525 kts 105°
2026-02-20 10:55 39.85940 34.23015 37266 ft 525 kts 106°
2026-02-20 10:55 39.83928 34.32159 37271 ft 525 kts 106°
2026-02-20 10:56 39.81906 34.41307 37265 ft 525 kts 106°
2026-02-20 10:56 39.79891 34.50391 37267 ft 526 kts 106°
2026-02-20 10:57 39.77853 34.59537 37263 ft 526 kts 106°